Location: Newark
(44.3681°N, 100.3364°W)
Time: 07:57:24
(UTC+00:00)

S-56A Canister/Altair - Pass Details

Date: 06 March 2020
Orbit: 634 x 2498 km, 38.9° (Epoch: 08 April)

Event Time Altitude Azimuth Distance (km) Brightness Sun altitude
Rises 18:15:56 0° 278° (W) 5,441 11.7 39.7°
Reaches altitude 10° 18:19:15 10° 275° (W) 4,636 11.5 39.8°
Maximum altitude 18:32:25 57° 202° (SSW) 2,782 11.8 40.2°
Drops below altitude 10° 18:46:51 10° 129° (SE) 5,043 12.3 40.4°
Sets 18:50:40 0° 126° (SE) 5,930 12.4 40.4°
